ASGARDIA 1

Last updated on Tue Sep 13 2022 00:03:39 GMT+0000 (Coordinated Universal Time)

1 43049U 17071N 22255.05173450 .15425766 12621-4 25874-3 0 9998 2 43049 51.6097 313.3868 0002955 270.4685 89.6006 16.47958215269368

Satellite not in orbit